• Processing (Info)

  • MPEC 2004-K04 : 2004 JV20

    The following Minor Planet Electronic Circular may be linked-to from your own Web pages, but must not otherwise be redistributed electronically.

    A form allowing access to any MPEC is at the bottom of this page.


    Read MPEC 2004-K03 Read MPEC 2004-K05


    M.P.E.C. 2004-K04                                Issued 2004 May 16, 19:06 UT
    
         The Minor Planet Electronic Circulars contain information on unusual
             minor planets and routine data on comets.  They are published
       on behalf of Commission 20 of the International Astronomical Union by the
              Minor Planet Center, Smithsonian Astrophysical Observatory,
                              Cambridge, MA 02138, U.S.A.
    
             Supported in part by the Steven and Michele Kirsch Foundation
                 Prepared using the Tamkin Foundation Computer Network
    
                                  MPC@CFA.HARVARD.EDU
              URL http://cfa-www.harvard.edu/iau/mpc.html  ISSN 1523-6714
    
                                       2004 JV20
    
    Observations:
         K04J20V* C2004 05 15.20647 14 00 44.54 -15 21 06.0          18.2   EK004704
         K04J20V  C2004 05 15.21586 14 00 28.99 -15 25 23.0          18.5   EK004704
         K04J20V  C2004 05 15.22526 14 00 13.36 -15 29 39.5          18.7   EK004704
         K04J20V  C2004 05 15.23466 13 59 57.65 -15 33 56.8          18.7   EK004704
         K04J20V  C2004 05 15.24405 13 59 41.95 -15 38 14.9          19.0   EK004704
         K04J20V FC2004 05 15.93292 13 39 38.95 -21 07 26.2          18.4 R EK004J95
         K04J20V FC2004 05 15.93825 13 39 28.45 -21 10 07.1          18.8 R EK004J95
         K04J20V  C2004 05 16.21214 13 30 32.96 -23 26 37.5          18.0 R EK004926
         K04J20V  C2004 05 16.21247 13 30 32.31 -23 26 48.5                 EK004926
         K04J20V  C2004 05 16.21278 13 30 31.66 -23 26 56.9          18.1 R EK004926
         K04J20V  C2004 05 16.25841 13 28 54.33 -23 50 01.9          19.0   EK004704
         K04J20V  C2004 05 16.26335 13 28 43.80 -23 52 31.4          18.3   EK004704
         K04J20V  C2004 05 16.26800 13 28 34.02 -23 54 51.7          19.0   EK004704
         K04J20V  C2004 05 16.27328 13 28 22.76 -23 57 31.8          18.9   EK004704
         K04J20V  C2004 05 16.27773 13 28 13.22 -23 59 46.3          19.4   EK004704
         K04J20V  C2004 05 16.28233 13 28 03.43 -24 02 05.1          19.1   EK004704
         K04J20V  C2004 05 16.28745 13 27 52.61 -24 04 37.8          19.1   EK004704
         K04J20V  C2004 05 16.29142 13 27 44.19 -24 06 39.4          18.6   EK004704
         K04J20V  C2004 05 16.29705 13 27 32.02 -24 09 30.0          18.9   EK004704
         K04J20V  C2004 05 16.30048 13 27 24.74 -24 11 13.9          18.9   EK004704
    
    Observer details:
    704 Lincoln Laboratory ETS, New Mexico.  Observers M. Blythe, F. Shelly,
        M. Bezpalko, R. Huber, L. Manguso, D. Torres, R. Kracke, M. McCleary,
        H. Stange, A. Milner.  Measurers J. Stuart, R. Sayer, J. Evans, J. Kommers.
        1.0-m f/2.15 reflector + CCD.
    926 Tenagra II Observatory.  Observers P. R. Holvorcem, M. Schwartz.  0.81-m
        f/7 Ritchey-Chretien + CCD.
    J95 Great Shefford.  Observer P. Birtwhistle.  0.30-m f/6.3 Schmidt-Cassegrain
        + CCD.
    
    Orbital elements:
    2004 JV20
    Epoch 2004 July 14.0 TT = JDT 2453200.5                 MPC
    M   0.56867              (2000.0)            P               Q
    n   0.65223943     Peri.  252.54442     +0.51490748     +0.78626953
    a   1.3168350      Node    53.44410     -0.53155839     +0.60542164
    e   0.3400103      Incl.   25.16241     -0.67254440     +0.12347008
    P   1.51           H   23.7           G   0.15           U   8
    Residuals in seconds of arc
    040515 704  0.6-  0.2+    040516 926  0.2-  0.1+    040516 704  0.6-  0.3-
    040515 704  0.1+  0.2-    040516 926  0.4+  0.9-    040516 704  0.6-  0.1-
    040515 704  0.4+  0.3+    040516 926  0.4+  0.1+    040516 704  0.6+  1.8+
    040515 704  0.1+  0.2+    040516 704  0.3+  0.3+    040516 704  1.1+  0.0
    040515 704  0.3+  0.7-    040516 704  0.4-  0.1+    040516 704  1.2-  0.6-
    040515 J95  0.2+  1.7+    040516 704  1.0+  0.4+    040516 704  0.7-  1.0-
    040515 J95  1.1-  1.1-    040516 704  0.5+  0.2-
    
    Ephemeris:
    2004 JV20                a,e,i = 1.32, 0.34, 25                  q = 0.8691
    Date    TT    R. A. (2000) Decl.     Delta      r     Elong.  Phase     V
    2004 05 15    14 06.08   -13 46.1    0.048    1.056   159.6    19.5    18.2
    2004 05 17    13 01.43   -30 04.8    0.043    1.046   143.4    35.2    18.4
    2004 05 19    11 25.03   -44 38.1    0.045    1.036   121.5    56.4    19.1
    2004 05 21    09 37.95   -51 04.5    0.053    1.026   103.4    73.7    20.0
    2004 05 23    08 16.30   -51 24.3    0.065    1.016    91.1    85.2    20.8
    2004 05 25    07 24.40   -49 43.2    0.080    1.006    82.9    92.5    21.5
    
    Kyle E. Smalley              (C) Copyright 2004 MPC           M.P.E.C. 2004-K04
    

    Read MPEC 2004-K03 Read MPEC 2004-K05


    MPEC number:

    Enter an MPEC number in one of the following forms:

    • 1997-B01 (the full form)
    • J97B01 (the packed version of the full form)
    • B01 (the abbreviated form)